Time,TemperatureF,DewpointF,PressureIn,WindDirection,WindDirectionDegrees,WindSpeedMPH,WindSpeedGustMPH,Humidity,HourlyPrecipIn,Conditions,Clouds,dailyrainin,SoftwareType,DateUTC
2013-07-09 00:12:00,75.0,-99.9,-100.00,South,180,0.0,2.0,-999,0.00,,,-99.99,,2013-07-09 05:12:00,
2013-07-09 00:22:00,75.0,-99.9,-100.00,South,180,0.0,2.0,-999,0.00,,,-99.99,,2013-07-09 05:22:00,
2013-07-09 00:34:00,75.0,-99.9,-100.00,South,180,0.0,2.0,-999,0.00,,,-99.99,,2013-07-09 05:34:00,
2013-07-09 00:42:00,74.0,74.0,-100.00,ESE,120,1.0,2.0,99,0.00,,,-99.99,,2013-07-09 05:42:00,
2013-07-09 00:52:00,74.0,74.0,-100.00,SE,140,0.0,3.0,99,0.00,,,-99.99,,2013-07-09 05:52:00,
2013-07-09 01:11:00,75.0,75.0,-100.00,South,170,2.0,2.0,99,0.00,,,-99.99,,2013-07-09 06:11:00,
2013-07-09 01:34:00,74.0,-99.9,-100.00,SE,140,2.0,2.0,-999,0.00,,,-99.99,,2013-07-09 06:34:00,
2013-07-09 01:43:00,74.0,-99.9,-100.00,ESE,115,2.0,2.0,-999,0.00,,,-99.99,,2013-07-09 06:43:00,
2013-07-09 01:53:00,74.0,74.0,-100.00,SE,130,1.0,3.0,99,0.00,,,-99.99,,2013-07-09 06:53:00,
2013-07-09 02:12:00,73.0,73.0,-100.00,SSE,150,1.0,2.0,99,0.00,,,-99.99,,2013-07-09 07:12:00,
2013-07-09 02:34:00,74.0,74.0,-100.00,SSE,155,1.0,2.0,99,0.00,,,-99.99,,2013-07-09 07:34:00,
2013-07-09 02:43:00,73.0,73.0,-100.00,SSE,155,2.0,3.0,99,0.00,,,-99.99,,2013-07-09 07:43:00,
2013-07-09 02:53:00,73.0,73.0,-100.00,SSE,150,2.0,3.0,99,0.00,,,-99.99,,2013-07-09 07:53:00,
2013-07-09 03:01:00,73.0,73.0,-100.00,SSE,150,2.0,3.0,99,0.00,,,-99.99,,2013-07-09 08:01:00,
2013-07-09 03:22:00,73.0,73.0,-100.00,South,190,0.0,2.0,99,0.00,,,-99.99,,2013-07-09 08:22:00,
2013-07-09 03:33:00,73.0,73.0,-100.00,South,190,0.0,2.0,99,0.00,,,-99.99,,2013-07-09 08:33:00,
2013-07-09 03:43:00,73.0,73.0,-100.00,South,190,0.0,2.0,99,0.00,,,-99.99,,2013-07-09 08:43:00,
2013-07-09 03:52:00,73.0,73.0,-100.00,South,190,0.0,2.0,99,0.00,,,-99.99,,2013-07-09 08:52:00,
2013-07-09 04:34:00,72.0,72.0,-100.00,SSE,160,2.0,4.0,99,0.00,,,-99.99,,2013-07-09 09:34:00,
2013-07-09 04:42:00,72.0,72.0,-100.00,SSE,160,2.0,4.0,99,0.00,,,-99.99,,2013-07-09 09:42:00,
2013-07-09 05:11:00,73.0,73.0,-100.00,SSE,160,4.0,5.0,99,0.00,,,-99.99,,2013-07-09 10:11:00,
2013-07-09 05:33:00,73.0,73.0,-100.00,SE,145,4.0,6.0,99,0.00,,,-99.99,,2013-07-09 10:33:00,
2013-07-09 05:42:00,73.0,73.0,-100.00,South,170,2.0,5.0,99,0.00,,,-99.99,,2013-07-09 10:42:00,
2013-07-09 05:52:00,73.0,73.0,-100.00,South,170,2.0,5.0,99,0.00,,,-99.99,,2013-07-09 10:52:00,
2013-07-09 06:01:00,73.0,73.0,-100.00,South,170,2.0,4.0,99,0.00,,,-99.99,,2013-07-09 11:01:00,
2013-07-09 06:22:00,74.0,74.0,-100.00,SSE,150,4.0,4.0,99,0.00,,,-99.99,,2013-07-09 11:22:00,
2013-07-09 06:34:00,74.0,74.0,-100.00,South,185,5.0,6.0,99,0.00,,,-99.99,,2013-07-09 11:34:00,
2013-07-09 06:42:00,75.0,75.0,-100.00,SSW,210,6.0,17.0,99,1.97,,,-99.99,,2013-07-09 11:42:00,
2013-07-09 06:53:00,75.0,75.0,-100.00,SSW,210,6.0,17.0,99,1.97,,,-99.99,,2013-07-09 11:53:00,
2013-07-09 07:11:00,74.0,74.0,-100.00,SE,145,4.0,5.0,99,0.03,,,-99.99,,2013-07-09 12:11:00,
2013-07-09 07:33:00,75.0,75.0,-100.00,SE,140,3.0,6.0,99,0.00,,,-99.99,,2013-07-09 12:33:00,
2013-07-09 07:43:00,75.0,75.0,-100.00,ENE,70,1.0,3.0,99,0.00,,,-99.99,,2013-07-09 12:43:00,
2013-07-09 07:52:00,75.0,75.0,-100.00,ENE,70,1.0,3.0,99,0.00,,,-99.99,,2013-07-09 12:52:00,
2013-07-09 08:11:00,75.0,75.0,-100.00,ESE,115,5.0,6.0,99,0.04,,,-99.99,,2013-07-09 13:11:00,
2013-07-09 08:33:00,76.0,76.0,-100.00,SE,145,4.0,6.0,99,0.00,,,-99.99,,2013-07-09 13:33:00,
2013-07-09 08:43:00,76.0,76.0,-100.00,East,100,6.0,7.0,99,0.00,,,-99.99,,2013-07-09 13:43:00,
2013-07-09 09:11:00,76.0,-99.9,-100.00,SE,130,4.0,7.0,-999,0.00,,,-99.99,,2013-07-09 14:11:00,
2013-07-09 09:22:00,76.0,-99.9,-100.00,SE,130,4.0,7.0,-999,0.00,,,-99.99,,2013-07-09 14:22:00,
2013-07-09 09:34:00,77.0,77.0,-100.00,ESE,115,4.0,8.0,99,0.00,,,-99.99,,2013-07-09 14:34:00,
2013-07-09 09:43:00,77.0,77.0,-100.00,East,85,4.0,7.0,99,0.00,,,-99.99,,2013-07-09 14:43:00,
2013-07-09 10:02:00,78.0,-99.9,-100.00,SSE,150,5.0,7.0,-999,0.00,,,-99.99,,2013-07-09 15:02:00,
2013-07-09 10:12:00,78.0,78.0,-100.00,South,175,6.0,9.0,99,0.00,,,-99.99,,2013-07-09 15:12:00,
2013-07-09 10:22:00,78.0,78.0,-100.00,South,175,6.0,9.0,99,0.00,,,-99.99,,2013-07-09 15:22:00,
2013-07-09 10:33:00,77.0,77.0,-100.00,West,265,4.0,6.0,99,0.00,,,-99.99,,2013-07-09 15:33:00,
2013-07-09 10:43:00,77.0,77.0,-100.00,WNW,290,6.0,7.0,99,0.00,,,-99.99,,2013-07-09 15:43:00,
2013-07-09 11:34:00,80.0,-99.9,-100.00,SSE,150,6.0,10.0,-999,0.00,,,-99.99,,2013-07-09 16:34:00,
2013-07-09 11:43:00,81.0,-99.9,-100.00,SSE,165,12.0,15.0,-999,0.00,,,-99.99,,2013-07-09 16:43:00,
2013-07-09 11:52:00,80.0,80.0,-100.00,South,170,11.0,18.0,99,0.00,,,-99.99,,2013-07-09 16:52:00,
2013-07-09 12:12:00,80.0,-99.9,-100.00,SSE,165,12.0,17.0,-999,0.00,,,-99.99,,2013-07-09 17:12:00,
2013-07-09 12:35:00,80.0,80.0,-100.00,SSE,165,11.0,16.0,99,0.00,,,-99.99,,2013-07-09 17:35:00,
2013-07-09 12:45:00,81.0,81.0,-100.00,SSE,165,10.0,14.0,99,0.00,,,-99.99,,2013-07-09 17:45:00,
2013-07-09 13:11:00,80.0,80.0,-100.00,South,175,11.0,19.0,99,0.00,,,-99.99,,2013-07-09 18:11:00,
2013-07-09 13:32:00,81.0,-99.9,-100.00,South,170,11.0,17.0,-999,0.00,,,-99.99,,2013-07-09 18:32:00,
2013-07-09 14:52:00,87.0,83.0,-100.00,SW,215,9.0,16.0,90,0.00,,,-99.99,,2013-07-09 19:52:00,
2013-07-09 15:01:00,87.0,83.0,-100.00,SW,215,9.0,16.0,90,0.00,,,-99.99,,2013-07-09 20:01:00,
2013-07-09 15:32:00,88.0,83.0,-100.00,SSW,205,7.0,14.0,86,0.00,,,-99.99,,2013-07-09 20:32:00,
2013-07-09 15:43:00,88.0,83.0,-100.00,SW,225,9.0,17.0,87,0.00,,,-99.99,,2013-07-09 20:43:00,
2013-07-09 19:33:00,88.0,85.0,-100.00,SW,235,7.0,11.0,89,0.00,,,-99.99,,2013-07-10 00:33:00,
2013-07-09 20:43:00,84.0,84.0,-100.00,SSE,165,1.0,2.0,99,0.04,,,-99.99,,2013-07-10 01:43:00,
2013-07-09 20:52:00,84.0,84.0,-100.00,SSE,165,1.0,2.0,99,0.06,,,-99.99,,2013-07-10 01:52:00,
2013-07-09 21:02:00,84.0,84.0,-100.00,SSE,165,1.0,2.0,99,0.06,,,-99.99,,2013-07-10 02:02:00,
2013-07-09 21:11:00,83.0,83.0,-100.00,South,170,1.0,1.0,99,0.01,,,-99.99,,2013-07-10 02:11:00,
2013-07-09 21:43:00,80.0,80.0,-100.00,SSE,160,1.0,2.0,99,0.01,,,-99.99,,2013-07-10 02:43:00,
2013-07-09 21:53:00,81.0,81.0,-100.00,SSE,155,2.0,3.0,99,0.00,,,-99.99,,2013-07-10 02:53:00,
2013-07-09 22:01:00,81.0,81.0,-100.00,SSE,155,2.0,3.0,99,0.00,,,-99.99,,2013-07-10 03:01:00,
2013-07-09 22:12:00,80.0,80.0,-100.00,SSE,160,2.0,2.0,99,0.01,,,-99.99,,2013-07-10 03:12:00,
2013-07-09 22:32:00,79.0,79.0,-100.00,SE,145,1.0,1.0,99,0.00,,,-99.99,,2013-07-10 03:32:00,
2013-07-09 22:43:00,79.0,79.0,-100.00,SSE,155,2.0,2.0,99,32.25,,,-99.99,,2013-07-10 03:43:00,
2013-07-09 23:11:00,79.0,79.0,-100.00,ESE,110,2.0,3.0,99,0.00,,,-99.99,,2013-07-10 04:11:00,
2013-07-09 23:33:00,80.0,80.0,-100.00,NNW,335,7.0,12.0,99,0.00,,,-99.99,,2013-07-10 04:33:00,
2013-07-09 23:43:00,80.0,-99.9,-100.00,NNE,20,2.0,11.0,-999,0.00,,,-99.99,,2013-07-10 04:43:00,
2013-07-09 23:52:00,79.0,79.0,-100.00,NW,315,3.0,3.0,99,0.00,,,-99.99,,2013-07-10 04:52:00,